Weather History for Shawano, WI

Change the Weather History Date:

Sunday, December 30, 2012

  Actual Average (KGRB) Record (KGRB)
Temperature  
Mean Temperature 19 °F 18 °F  
Max Temperature 23 °F 25 °F 55 °F (1936)
Min Temperature 15 °F 11 °F -19 °F (2013)
Degree Days  
Heating Degree Days 46 47  
Month to date heating degree days 1303  
Since 1 July heating degree days 3043  
Cooling Degree Days 0 0  
Month to date cooling degree days 0  
Year to date cooling degree days 398  
Moisture  
Dew Point 11 °F    
Average Humidity 72    
Maximum Humidity 86    
Minimum Humidity 63    
Precipitation  
Precipitation 0.00 in 0.04 in 0.78 in (1972)
Month to date precipitation 1.47  
Year to date precipitation 29.48  
Snow  
Snow 0.00 in 0.40 in 6.70 in (1971)
Month to date snowfall 12.7  
Since 1 July snowfall 16.9  
Snow Depth -    
Sea Level Pressure  
Sea Level Pressure 30.09 in    
Wind  
Wind Speed 4 mph (SW)    
Max Wind Speed 9 mph    
Max Gust Speed -    
Visibility 9 miles    
Events Snow    
T = Trace of Precipitation, MM = Missing Value Source: NWS Daily Summary

Daily Weather History Graph

Daily Weather History Graph

Search for Another Location

Airport:

Trip Planner

Search our weather history database for the weather conditions in past years. The results will help you decide how hot, cold, wet, or windy it might be!

Date:

Astronomy

Dec. 30, 2012 Rise Set
Actual Time 7:31 AM CST 4:22 PM CST
Civil Twilight 6:58 AM CST 4:56 PM CST
Nautical Twilight 6:21 AM CST 5:33 PM CST
Astronomical Twilight 5:45 AM CST 6:08 PM CST
Moon 7:00 PM CST (12/30) 8:34 AM CST (12/30)
Length of Visible Light 9h 58m
Length of Day
8h 51m
Waning Gibbous, 95% of the Moon is Illuminated
Dec 30
Waning Gibbous
Jan 4
Last Quarter
Jan 11
New
Jan 18
First Quarter
Jan 26
Full

Hourly Weather History & Observations

Time (CST) Temp. Windchill Dew Point Humidity Pressure Visibility Wind Dir Wind Speed Gust Speed Precip Events Conditions
12:15 AM 23.0 °F 15.8 °F 15.8 °F 74% 30.10 in 10.0 mi WSW 5.8 mph - N/A   Overcast
7:35 AM 17.6 °F 12.3 °F 10.4 °F 73% 30.17 in 10.0 mi West 3.5 mph - N/A   Overcast
7:55 AM 17.6 °F 12.3 °F 10.4 °F 73% 30.18 in 10.0 mi WSW 3.5 mph - N/A   Overcast
8:15 AM 17.6 °F 10.7 °F 10.4 °F 73% 30.19 in 10.0 mi West 4.6 mph - N/A   Overcast
8:35 AM 17.6 °F 12.3 °F 10.4 °F 73% 30.19 in 7.0 mi West 3.5 mph - N/A Snow Light Snow
8:55 AM 17.6 °F 9.3 °F 10.4 °F 73% 30.20 in 5.0 mi WSW 5.8 mph - N/A Snow Light Snow
9:15 AM 17.6 °F 8.2 °F 10.4 °F 73% 30.20 in 7.0 mi West 6.9 mph - N/A Snow Light Snow
9:35 AM 17.6 °F 12.3 °F 12.2 °F 79% 30.20 in 4.0 mi WSW 3.5 mph - N/A Snow Light Snow
9:55 AM 19.4 °F 9.5 °F 10.4 °F 68% 30.21 in 7.0 mi WSW 8.1 mph - N/A Snow Light Snow
10:15 AM 19.4 °F 9.5 °F 10.4 °F 68% 30.21 in 7.0 mi WSW 8.1 mph - N/A Snow Light Snow
10:35 AM 19.4 °F 8.6 °F 10.4 °F 68% 30.22 in 10.0 mi WSW 9.2 mph - N/A   Overcast
10:55 AM 19.4 °F 10.4 °F 10.4 °F 68% 30.21 in 10.0 mi SW 6.9 mph - N/A   Mostly Cloudy
11:15 AM 19.4 °F 9.5 °F 10.4 °F 68% 30.20 in 10.0 mi SW 8.1 mph - N/A   Scattered Clouds
11:35 AM 19.4 °F 10.4 °F 10.4 °F 68% 30.20 in 10.0 mi WSW 6.9 mph - N/A   Scattered Clouds
11:55 AM 19.4 °F 11.5 °F 10.4 °F 68% 30.19 in 10.0 mi West 5.8 mph - N/A   Clear
12:15 PM 21.2 °F 14.9 °F 10.4 °F 63% 30.17 in 10.0 mi WSW 4.6 mph - N/A   Clear
12:35 PM 21.2 °F 13.6 °F 10.4 °F 63% 30.16 in 10.0 mi SW 5.8 mph - N/A   Clear
12:55 PM 21.2 °F 12.6 °F 10.4 °F 63% 30.15 in 10.0 mi WSW 6.9 mph - N/A   Clear
1:15 PM 21.2 °F 14.9 °F 10.4 °F 63% 30.14 in 10.0 mi WSW 4.6 mph - N/A   Clear
1:35 PM 21.2 °F 11.7 °F 10.4 °F 63% 30.14 in 10.0 mi SW 8.1 mph - N/A   Clear
1:55 PM 21.2 °F 13.6 °F 10.4 °F 63% 30.13 in 10.0 mi SW 5.8 mph - N/A   Clear
2:15 PM 21.2 °F 14.9 °F 10.4 °F 63% 30.11 in 10.0 mi SSW 4.6 mph - N/A   Clear
2:35 PM 21.2 °F 16.4 °F 10.4 °F 63% 30.10 in 10.0 mi SW 3.5 mph - N/A   Clear
2:55 PM 21.2 °F 13.6 °F 10.4 °F 63% 30.11 in 10.0 mi SW 5.8 mph - N/A   Clear
3:15 PM 21.2 °F 12.6 °F 10.4 °F 63% 30.10 in 10.0 mi SW 6.9 mph - N/A   Clear
3:35 PM 21.2 °F 16.4 °F 10.4 °F 63% 30.11 in 10.0 mi SW 3.5 mph - N/A   Clear
3:55 PM 21.2 °F 14.9 °F 10.4 °F 63% 30.10 in 10.0 mi SW 4.6 mph - N/A   Clear
4:15 PM 21.2 °F 16.4 °F 10.4 °F 63% 30.10 in 10.0 mi SW 3.5 mph - N/A   Clear
4:35 PM 21.2 °F 16.4 °F 10.4 °F 63% 30.09 in 10.0 mi SW 3.5 mph - N/A   Clear
4:55 PM 21.2 °F - 10.4 °F 63% 30.08 in 10.0 mi Calm Calm - N/A   Clear
5:15 PM 19.4 °F - 10.4 °F 68% 30.08 in 10.0 mi Calm Calm - N/A   Clear
5:35 PM 19.4 °F 14.3 °F 12.2 °F 74% 30.06 in 10.0 mi SSE 3.5 mph - N/A   Clear
5:55 PM 17.6 °F 12.3 °F 10.4 °F 73% 30.07 in 10.0 mi SSW 3.5 mph - N/A   Clear
6:15 PM 17.6 °F - 10.4 °F 73% 30.06 in 10.0 mi Calm Calm - N/A   Clear
6:35 PM 17.6 °F 12.3 °F 10.4 °F 73% 30.06 in 10.0 mi South 3.5 mph - N/A   Clear
6:55 PM 15.8 °F - 10.4 °F 79% 30.05 in 10.0 mi Calm Calm - N/A   Clear
7:15 PM 15.8 °F - 10.4 °F 79% 30.04 in 7.0 mi Calm Calm - N/A   Clear
7:35 PM 15.8 °F - 10.4 °F 79% 30.03 in 7.0 mi Calm Calm - N/A   Clear
7:55 PM 15.8 °F 10.2 °F 10.4 °F 79% 30.01 in 7.0 mi SSW 3.5 mph - N/A   Clear
8:15 PM 15.8 °F - 10.4 °F 79% 30.01 in 7.0 mi Calm Calm - N/A   Mostly Cloudy
8:35 PM 17.6 °F - 10.4 °F 73% 30.00 in 7.0 mi Calm Calm - N/A   Overcast
8:55 PM 17.6 °F 12.3 °F 12.2 °F 79% 29.99 in 10.0 mi SW 3.5 mph - N/A   Overcast
9:15 PM 17.6 °F 10.7 °F 12.2 °F 79% 29.99 in 10.0 mi SW 4.6 mph - N/A   Overcast
9:35 PM 17.6 °F - 12.2 °F 79% 29.98 in 7.0 mi Calm Calm - N/A   Overcast
9:55 PM 17.6 °F - 12.2 °F 79% 29.96 in 7.0 mi Calm Calm - N/A   Scattered Clouds
10:15 PM 15.8 °F - 12.2 °F 86% 29.96 in 7.0 mi Calm Calm - N/A   Scattered Clouds
10:35 PM 15.8 °F - 12.2 °F 86% 29.94 in 7.0 mi Calm Calm - N/A   Mostly Cloudy
10:55 PM 15.8 °F - 12.2 °F 86% 29.93 in 7.0 mi Calm Calm - N/A   Overcast
11:15 PM 17.6 °F - 12.2 °F 79% 29.92 in 7.0 mi Calm Calm - N/A   Overcast
11:35 PM 17.6 °F - 14.0 °F 86% 29.91 in 7.0 mi Calm Calm - N/A   Overcast
11:55 PM 19.4 °F - 14.0 °F 80% 29.90 in 7.0 mi Calm Calm - N/A   Overcast